Погода в Акселе

Россия / Республика Мордовия     54°35′51″N   43°25′04″E
темп.,
°C
ветер,
м/с
пор.,
м/с
влажн.,
%
обл.,
%
осадки,
мм/ч
давл.,
гПа
погр.,
м
6 августа, пт
пт600:00+19юв365685 0.0 1016141
03:00+18юв4862100 0.0 1016181
06:00+18ююв4960100 0.0 1016262
09:00+20ююв476098 0.0 1016343
12:00+20ююв496188 0.0 1016306
15:00+25ю684232 0.0 10151116
18:00+23юв485695 0.0 1014369
21:00+20юв51365100 0.0 1014259
7 августа, сб
сб700:00+19ююв5155994 0.0 1014334
03:00+20ю6145461 0.0 1013390
06:00+20ююв51454100 0.0 1014359
09:00+21ю4105599 0.0 1015411
12:00+26ю574299 0.0 1015678
15:00+29ююв56365 0.0 10141307
18:00+27ююв48455 0.0 1014335
21:00+21юв485893 0.0 1015130
8 августа, вс
вс800:00+20юв4105946 0.0 1016170
03:00+19юв496082 0.0 1016155
06:00+19юв41057100 0.0 1017189
09:00+24ююв5943100 0.0 1017373
12:00+28ююв5637100 0.0 1017616
15:00+31ююв5630100 0.0 10171241
18:00+28юв3545100 0.0 1016105
21:00+24ююв41150100 0.0 1017213
9 августа, пн
пн900:00+23ю41245100 0.0 1018236
03:00+23ююз2341100 0.0 101841
06:00+22ю3447100 0.0 101959
09:00+27юз343996 0.0 1019373
12:00+30зюз233391 0.0 1019925
15:00+32сз122998 0.0 10192020
18:00+30юз0141100 0.0 101918
21:00+24с1150100 0.0 101911
10 августа, вт
вт1000:00+23юв1152100 0.0 101911
03:00+22ссв2255100 0.0 101934
06:00+22св3461100 0.1 101879
09:00+24св3458100 0.2 1019190
12:00+29всв5541100 0.0 1017883
15:00+32в443358 0.0 10162343
18:00+30в4641100 0.0 1015356
21:00+25всв4955100 0.0 1015196